Location: Haft
(48.6568°N, 8.1178°E)
Time: 05:04:06
(UTC+00:00)

Daily predictions for brighter satellites

Satellite Brightness Start Highest point End
(mag) Time Altitude Azimuth Time Altitude Azimuth Time Altitude Azimuth
Cosmos 1331 Rocket 4.5 00:06:53 52° NW 00:06:53 52° NW 00:11:53 10° NNE
ATLAS 2AS CENTAUR R/B 3.0 00:09:45 43° W 00:11:49 60° NW 00:18:35 10° NE
IDEFIX/ARIANE 42P 4.1 00:12:03 10° NE 00:16:13 24° E 00:16:41 24° E
Meteor 1-5 Rocket 4.1 00:15:54 10° NNW 00:20:58 76° NW 00:20:58 76° NW
Cosmos 1953 Rocket 4.3 00:18:36 10° N 00:22:18 50° NE 00:22:18 50° NE
Cosmos 1980 Rocket 2.6 00:19:38 10° NW 00:24:20 51° WNW 00:24:20 51° WNW
USA 234 4.2 00:20:42 10° E 00:26:53 46° N 00:33:05 10° WNW
Cosmos 44 Rocket 4.2 00:29:47 42° E 00:29:47 42° E 00:33:56 10° NE
COSMOS 2406 4.0 00:32:29 38° ESE 00:32:47 38° ESE 00:38:04 10° NE
Meteor 2-10 4.2 00:30:47 10° NNW 00:36:02 70° W 00:36:02 70° W
Cosmos 2369 3.5 00:30:50 10° NNW 00:36:34 85° WSW 00:36:37 84° SW
Cosmos 1634 Rocket 4.1 00:35:56 55° SE 00:36:56 62° E 00:43:01 10° NNE
Cosmos 724 4.3 00:44:49 66° SSE 00:45:14 68° ESE 00:51:10 10° NE
Cosmos 2084 4.2 00:46:23 48° N 00:46:23 48° N 00:49:42 10° NE
Cosmos 1627 Rocket 4.4 00:41:26 10° NNW 00:47:42 76° W 00:48:29 67° SSW
Spot 1 4.5 00:43:45 10° NNE 00:47:07 58° NNE 00:47:07 58° NNE
Cosmos 1607 4.0 00:47:22 56° SE 00:47:56 59° ESE 00:54:04 10° NE
Cosmos-2242 3.5 00:52:12 57° NE 00:52:12 57° NE 00:55:42 10° NNE
Cosmos 2360 Rocket 3.7 00:46:56 10° NNW 00:52:08 35° NE 00:57:18 10° ESE
Cosmos 2333 Rocket 2.8 00:47:47 10° NNW 00:53:22 54° NE 00:57:05 21° SE
USA 281 3.3 00:51:27 28° SE 00:55:07 73° ENE 01:01:41 10° NNW
Cosmos 2082 Rocket 2.1 00:59:24 66° WSW 01:00:04 74° WNW 01:05:49 10° NNE
Meteor 2-2 Rocket 4.1 01:02:52 64° SSE 01:03:42 78° E 01:09:21 10° NNE
Cosmos 2279 Rocket 4.1 01:03:59 50° SSE 01:05:36 72° E 01:11:50 10° NNE
Cosmos 2278 4.1 01:01:30 10° NNW 01:07:11 61° ENE 01:11:11 20° SE
Cosmos 2322 Rocket 3.1 01:02:09 10° NNW 01:07:36 46° NE 01:13:01 10° SE
Cosmos 1486 Rocket 4.1 01:02:48 10° NNW 01:08:01 70° ENE 01:09:36 44° SE
Cosmos 2221 3.7 01:07:40 31° ESE 01:08:04 31° E 01:11:44 10° NNE
NPP 4.2 01:03:26 10° NNE 01:08:41 51° E 01:09:56 42° SE
Resurs 1-4 Rocket 4.1 01:05:20 10° NE 01:09:15 21° E 01:12:17 13° SE
NOSS 3-3 (A) 3.7 01:14:12 55° SSE 01:14:52 59° SE 01:20:53 10° NE
ACS3 Solar Sail 1.9 01:11:17 10° N 01:17:15 63° WNW 01:18:33 51° WSW
Cosmos 1777 Rocket 4.1 01:13:23 10° NNW 01:18:40 74° ENE 01:20:41 38° SE
Cosmos 2219 Rocket 3.7 01:16:17 10° NNW 01:21:29 36° NE 01:26:40 10° ESE
CZ-4C R/B 2.1 01:22:06 51° WNW 01:22:44 56° NW 01:28:13 10° NE
SL-16 R/B 2.1 01:17:04 10° NNW 01:22:46 87° WSW 01:24:53 41° SSE
H-2A R/B 4.3 01:20:18 10° NE 01:23:53 19° E 01:27:31 10° SE
GP-B 3.8 01:19:50 10° N 01:23:25 40° WNW 01:23:25 40° WNW
Cosmos 1271 Rocket 3.7 01:27:38 36° E 01:27:38 36° E 01:30:43 10° NNE
Meteor 1-14 Rocket 4.3 01:24:16 10° N 01:30:02 77° ENE 01:32:37 34° SSE
SL-4 R/B 2.8 01:31:35 37° ESE 01:31:35 37° ESE 01:34:00 10° ESE
ATLAS 3B R/B 3.9 01:24:00 10° NW 01:29:23 27° W 01:29:23 27° W
NOSS 3-3 (C) 3.7 01:30:27 52° S 01:31:36 65° SE 01:37:45 10° NE
USA 267 3.8 01:25:39 10° ENE 01:31:55 45° SE 01:34:01 35° S
Cosmos 2058 Rocket 3.4 01:32:04 52° WNW 01:32:04 52° WNW 01:36:18 10° N
Cosmos 2266 Rocket 4.0 01:29:29 10° N 01:35:39 75° E 01:39:09 27° SSE
Gbstr 26 Del rocket 2.8 01:37:23 64° E 01:37:23 64° E 01:40:35 10° ESE
Cosmos 1470 3.1 01:33:40 10° N 01:36:16 50° N 01:36:16 50° N
KORONAS-FOTON 4.4 01:38:28 41° NNW 01:38:28 41° NNW 01:40:54 10° N
USA 290 4.3 01:37:48 20° ESE 01:37:48 20° ESE 01:40:11 10° NE
Cosmos 909 Rocket 4.5 01:37:59 34° WSW 01:40:28 53° NW 01:46:47 10° NNE
Cosmos 1536 4.2 01:44:50 10° NNW 01:46:48 24° NW 01:46:48 24° NW
Cosmos 2333 4.5 01:42:33 10° NNW 01:48:13 69° ENE 01:53:54 10° SE
DMSP B5D2-2 4.3 01:45:23 18° SSE 01:49:15 67° ENE 01:54:25 10° N
Cosmos 1812 Rocket 3.7 01:49:34 48° SSE 01:50:39 69° E 01:54:58 10° NNE
Meteor 2-6 Rocket 4.3 01:49:06 44° SW 01:50:56 70° WNW 01:56:51 10° N
NOSS 3-4 (A) 4.2 01:46:19 10° NW 01:52:51 65° NE 02:00:35 10° SE
NOSS 3-4 (C) 4.2 01:46:51 10° NW 01:53:25 64° NE 02:01:09 10° SE
ISS -1.0 01:56:14 11° SE 01:56:14 11° SE 01:56:51 10° ESE
IDEFIX/ARIANE 42P 2.8 01:50:56 10° N 01:55:58 53° WNW 01:57:22 41° WSW
COSMOS 2441 4.3 01:53:15 10° NNE 01:58:04 84° ESE 01:59:44 41° S
Envisat 3.5 01:53:39 10° NNE 01:58:39 56° E 02:01:23 26° SSE
Aureole 1 Rocket 4.0 01:55:39 10° NNW 01:59:38 50° ENE 02:04:37 10° SE
Cosmos 2084 Rocket 3.4 01:59:00 10° NW 02:03:13 81° NE 02:07:28 10° SE
ATLAS 2AS CENTAUR R/B 4.4 01:58:25 10° WNW 02:04:05 26° NNW 02:09:42 10° NE
Iridium 4 Rocket 3.4 02:03:00 31° S 02:05:16 77° E 02:10:21 10° N
MOZ.5/SAFIR/RUBIN 5/SL-8 3.7 02:05:32 39° S 02:07:09 66° WSW 02:11:48 10° NNW
Meteor 1-27 Rocket 4.4 02:03:31 18° SSE 02:07:52 57° E 02:13:39 10° NNE
H-2A R/B 2.4 02:06:25 25° SSE 02:08:23 64° ENE 02:11:57 10° N
USA 234 3.3 02:02:59 10° ESE 02:09:31 81° NNE 02:16:05 10° NW
Cosmos 44 Rocket 4.4 02:08:21 26° W 02:10:33 38° NW 02:15:25 10° NNE
Cosmos 1975 2.8 02:07:12 10° NNW 02:10:35 48° W 02:10:35 48° W
Cosmos 990 Rocket 3.8 02:06:12 10° NNW 02:11:21 77° WSW 02:15:53 13° SSE
ADEOS II 3.0 02:07:09 10° NNE 02:12:09 44° E 02:16:28 14° SSE
Cosmos 1763 Rocket 3.4 02:13:16 35° SSW 02:15:34 83° WNW 02:20:55 10° NNE
Cosmos 1238 Rocket 3.2 02:15:06 31° SE 02:15:52 39° E 02:18:42 10° NNE
ALOS 2.6 02:12:14 10° NNE 02:16:45 60° ESE 02:19:31 23° S
COSMOS 2406 3.9 02:14:30 28° WSW 02:17:02 43° NW 02:22:30 10° NNE
MSX 4.5 02:12:03 10° N 02:17:23 41° WNW 02:19:47 28° WSW
COSMOS 2428 4.4 02:15:13 10° NNW 02:20:30 36° NE 02:25:43 10° ESE
CZ-2D R/B 2.3 02:15:33 10° NNE 02:20:49 69° ESE 02:24:32 20° S
SL-16 R/B 3.9 02:15:23 10° SE 02:21:08 40° ENE 02:26:54 10° N
ADEOS Rocket 3.7 02:16:20 10° N 02:23:47 64° WNW 02:28:49 24° SW
Spot 2 4.3 02:23:20 10° SSE 02:28:08 89° WSW 02:33:08 10° NNW
Cosmos 1898 Rocket 4.2 02:24:20 10° NNW 02:29:25 55° ENE 02:34:28 10° SE
Cosmos 1354 Rocket 4.2 02:28:43 10° NNW 02:33:49 50° WSW 02:38:18 13° S
FENGYUN 3A 4.5 02:30:44 10° N 02:35:39 36° WNW 02:38:13 23° WSW
Cosmos 2360 Rocket 2.4 02:30:52 10° NW 02:36:17 47° WSW 02:41:40 10° S
Cosmos 2333 Rocket 3.0 02:32:34 10° NW 02:37:21 29° WSW 02:39:00 25° SW
Alouette 2 Rocket 3.1 02:34:03 10° NNW 02:38:11 86° WSW 02:41:40 10° S
USA 305 3.7 02:38:24 13° NNW 02:38:35 13° NNW 02:39:30 10° NNE
EP 1 4.3 02:37:33 10° NW 02:40:08 78° NE 02:42:57 10° SE
USA 281 4.1 02:38:17 23° SW 02:40:09 26° W 02:45:30 10° NW
Meteor 2-10 Rocket 4.1 02:38:42 10° N 02:43:46 61° ENE 02:48:58 10° SSE
Cosmos 540 Rocket 3.7 02:41:18 25° SW 02:44:08 55° WNW 02:49:14 10° NNE
Cosmos 2221 3.6 02:43:58 23° W 02:45:07 26° WNW 02:48:37 10° NNW
Cosmos 2082 Rocket 4.1 02:41:14 10° W 02:45:10 19° NW 02:49:08 10° N
H-2A R/B 3.9 02:42:10 10° NE 02:45:34 26° E 02:48:56 10° SSE
Cosmos 1553 Rocket 4.5 02:41:17 10° S 02:47:21 61° E 02:53:33 10° NNE
USA 276 3.3 02:50:08 14° ESE 02:50:08 14° ESE 02:50:28 10° ESE
Resurs 1-4 Rocket 2.2 02:44:12 10° N 02:49:28 65° WNW 02:53:19 18° SSW
Cosmos 468 Rocket 4.0 02:46:38 20° SSW 02:50:23 82° WNW 02:55:43 10° NNE
Cosmos 2322 Rocket 2.8 02:46:27 10° NW 02:51:28 34° WSW 02:56:28 10° SSW
BREEZE-M DEB (TANK) 3.1 02:50:12 17° W 02:52:27 86° S 03:00:45 10° ESE
DNEPR-1 R/B 4.3 02:49:21 10° NW 02:54:40 61° SW 03:01:09 10° SSE
Cosmos 1766 Rocket 3.6 02:53:05 10° NNW 02:57:21 55° W 03:01:33 10° S
Cosmos 1833 4.3 02:53:58 19° SW 02:58:05 67° WNW 03:03:45 10° NNE
ACS3 Solar Sail 3.7 02:55:46 10° NNW 02:58:32 14° NW 03:01:18 10° W
Cosmos 1271 Rocket 4.3 03:01:02 15° W 03:01:53 16° WNW 03:04:10 10° NNW
H-2A R/B 2.1 02:58:32 10° N 03:03:38 69° WNW 03:08:28 12° SSW
CRYOSAT 2 4.3 02:58:56 10° S 03:03:47 72° W 03:08:42 10° N
Cosmos 2237 Rocket 4.0 03:00:17 10° NNW 03:05:30 35° NE 03:10:41 10° ESE
Cosmos 2219 Rocket 2.5 03:00:11 10° NW 03:05:31 45° WSW 03:10:51 10° S
SL-16 R/B 3.7 03:02:55 10° WNW 03:05:59 15° W 03:06:38 15° WSW
SL-4 R/B 2.8 03:05:08 16° W 03:07:15 26° SW 03:10:25 10° SSE
Meteor 2-11 Rocket 4.4 03:02:02 10° NNW 03:08:11 70° W 03:14:15 10° S
SL-14 R/B 4.0 03:05:02 10° S 03:08:48 52° E 03:12:36 10° NNE
CZ-3 Stage 3 4.4 03:05:05 14° SW 03:11:23 32° SSE 03:32:03 10° ESE
USA 290 3.5 03:10:18 18° W 03:11:47 26° WNW 03:14:32 10° N
CZ-4C R/B 4.1 03:08:20 10° WNW 03:12:17 22° NNW 03:17:03 10° NE
ARGOS 3.4 03:09:15 10° NNE 03:14:39 73° ESE 03:20:00 10° S
USA 267 3.4 03:08:38 10° NE 03:15:11 73° NNW 03:21:22 12° WSW
Cosmos 1408 Rocket 4.3 03:11:16 10° N 03:15:31 56° ENE 03:19:42 10° SSE
Cosmos 1745 Rocket 4.5 03:10:06 10° N 03:16:14 64° ENE 03:22:19 10° SSE
METEOR-M 4.1 03:11:55 10° NNE 03:17:15 76° WNW 03:22:34 10° SSW
Gbstr 26 Del rocket 3.7 03:19:39 10° W 03:22:44 24° SW 03:25:51 10° SSE
Cosmos 2322 3.7 03:20:15 10° NNW 03:25:59 79° WSW 03:31:40 10° SSE
Cosmos 372 Rocket 4.5 03:25:06 10° NW 03:29:50 37° WSW 03:34:30 10° S
NOSS 3 (A) 4.3 03:29:16 10° NW 03:31:34 76° NE 03:34:34 10° SE
ISS -3.3 03:29:12 12° SW 03:32:09 54° SSE 03:35:28 10° ENE
Envisat 4.3 03:33:13 10° N 03:37:14 24° WNW 03:41:13 10° WSW
BREEZE-M DEB (TANK) 2.5 03:31:26 10° WSW 03:37:39 59° SSE 03:40:22 10° E
Meteor 2-4 Rocket 4.2 03:34:45 10° SW 03:39:44 38° WNW 03:44:43 10° N
Cosmos 1461 2.8 03:37:00 10° SW 03:40:41 58° NW 03:44:22 10° NNE
Aureole 1 Rocket 4.5 03:38:07 10° NW 03:41:26 21° WSW 03:45:17 10° SSW
H-2A R/B 4.2 03:41:45 10° WSW 03:42:44 11° W 03:43:43 10° WNW
Meteor 1-28 Rocket 3.5 03:40:20 10° SSE 03:43:33 60° ENE 03:46:47 10° N
NOSS 3-4 (A) 4.3 03:37:21 10° NW 03:43:39 38° WSW 03:50:52 10° S
NOSS 3-4 (C) 4.3 03:37:53 10° NW 03:44:13 39° WSW 03:51:28 10° S
AQUA 3.9 03:40:12 10° N 03:44:51 62° WNW 03:49:27 10° SSW
Cosmos 1066 Rocket 4.4 03:39:57 10° SSW 03:45:08 48° WNW 03:50:18 10° N
NOSS 0 Rocket 3.9 03:40:06 10° NNW 03:46:20 81° WSW 03:52:28 10° SSE
Cosmos 1151 Rocket 2.9 03:44:24 10° S 03:48:36 83° W 03:52:52 10° N
Cosmos 1842 Rocket 4.4 03:46:58 10° SW 03:50:49 31° WNW 03:54:42 10° N
Cosmos 1500 Rocket 3.5 03:46:32 10° NNW 03:50:56 70° W 03:55:18 10° S
ADEOS II 3.0 03:47:00 10° N 03:51:33 31° WNW 03:56:04 10° WSW
USA 234 3.7 03:46:55 10° SSE 03:52:55 38° SW 03:58:57 10° WNW
CZ-3 R/B 4.1 03:50:39 10° WSW 04:08:41 27° SSW 04:16:04 10° SSE
